Sisters Island, British Columbia

11:53 AM PST on February 19, 2017 (GMT -0800)
Sisters Island

Weather History for CWGT - September, 2013

Change the Weather History Date:

Tuesday, September 10, 2013

  Actual Average Record
Temperature  
Mean Temperature 64 °F -  
Max Temperature 70 °F - - ()
Min Temperature 59 °F - - ()
Growing Degree Days 14 (Base 50)    
Moisture  
Dew Point 56 °F    
Average Humidity 75    
Maximum Humidity 83    
Minimum Humidity 65    
Precipitation  
Precipitation 0.00 in - - ()
Sea Level Pressure  
Sea Level Pressure 29.99 in    
Wind  
Wind Speed 10 mph ()    
Max Wind Speed 17 mph    
Max Gust Speed -    
T = Trace of Precipitation, MM = Missing Value Source: Averaged Metar Reports

Daily Weather History Graph

Daily Weather History Graph

Search for Another Location

Airport or City:

Trip Planner

Search our weather history database for the weather conditions in past years. The results will help you decide how hot, cold, wet, or windy it might be!

Date:

Astronomy

Sep. 10, 2013 Rise Set
Actual Time 6:47 AM PDT 7:40 PM PDT
Civil Twilight 6:14 AM PDT 8:13 PM PDT
Nautical Twilight 5:35 AM PDT 8:52 PM PDT
Astronomical Twilight 4:54 AM PDT 9:33 PM PDT
Moon 12:52 PM PDT (9/10) 10:14 PM PDT (9/10)
Length of Visible Light 13h 58m
Length of Day
12h 53m
Waxing Crescent, 29% of the Moon is Illuminated
Sep 10
Waxing Crescent
Sep 12
First Quarter
Sep 19
Full
Sep 26
Last Quarter
Oct 4
New

Hourly Weather History & Observations

Time (PDT) Temp. Dew Point Humidity Pressure Visibility Wind Dir Wind Speed Gust Speed Precip Events Conditions
12:00 AM 63.9 °F 57.0 °F 78% 30.00 in - NW 17.3 mph - N/A   Unknown
1:00 AM 63.5 °F 56.7 °F 78% 30.01 in - WNW 11.5 mph - N/A   Unknown
2:00 AM 62.6 °F 54.9 °F 76% 30.01 in - NW 16.1 mph - N/A   Unknown
3:00 AM 62.1 °F 54.7 °F 77% 30.02 in - NW 12.7 mph - N/A   Unknown
4:00 AM 61.0 °F 53.1 °F 75% 30.01 in - WNW 13.8 mph - N/A   Unknown
5:00 AM 60 °F 54 °F 74% 30.02 in - WNW 12.7 mph - -  
5:00 AM 60.4 °F 53.8 °F 79% 30.02 in - WNW 12.7 mph - N/A   Unknown
6:00 AM 60.1 °F 54.0 °F 80% 30.01 in - NW 12.7 mph - N/A   Unknown
7:00 AM 59.7 °F 54.5 °F 83% 30.02 in - WNW 13.8 mph - N/A   Unknown
8:00 AM 61.2 °F 54.5 °F 79% 30.03 in - WNW 12.7 mph - N/A   Unknown
9:00 AM 61.3 °F 54.7 °F 79% 30.03 in - NW 12.7 mph - N/A   Unknown
10:00 AM 61.7 °F 55.4 °F 80% 30.03 in - NW 12.7 mph - N/A   Unknown
11:00 AM 61 °F 55 °F 74% 30.02 in - NW 11.5 mph - -  
11:00 AM 61.3 °F 54.9 °F 79% 30.02 in - NW 11.5 mph - N/A   Unknown
12:00 PM 62.4 °F 55.8 °F 79% 30.02 in - NW 9.2 mph - N/A   Unknown
1:00 PM 63.3 °F 55.8 °F 76% 30.01 in - NW 10.4 mph - N/A   Unknown
2:00 PM 64.2 °F 55.9 °F 74% 29.99 in - NW 9.2 mph - N/A   Unknown
3:00 PM 66.0 °F 57.4 °F 74% 29.98 in - WNW 4.6 mph - N/A   Unknown
4:00 PM 67.1 °F 57.0 °F 70% 29.96 in - NW 5.8 mph - N/A   Unknown
5:00 PM 69.3 °F 58.6 °F 69% 29.94 in - SSW 1.2 mph - N/A   Unknown
6:00 PM 69.8 °F 57.7 °F 65% 29.93 in - West 1.2 mph - N/A   Unknown
7:00 PM 70.2 °F 58.3 °F 66% 29.92 in - NW 2.3 mph - N/A   Unknown
8:00 PM 66.2 °F 57.7 °F 74% 29.92 in - WNW 3.5 mph - N/A   Unknown
9:00 PM 65.5 °F 57.9 °F 77% 29.92 in - NNW 1.2 mph - N/A   Unknown
10:00 PM 65.8 °F 56.5 °F 72% 29.93 in - North 3.5 mph - N/A   Unknown
11:00 PM 65 °F 56 °F 66% 29.93 in - North 2.3 mph - -  
11:00 PM 64.6 °F 56.3 °F 74% 29.93 in - North 2.3 mph - N/A   Unknown